Year,Month,Day,Hour,Minute,Value (Times are PST for temperature in C)
2011,05,13,00,00,5.30
2011,05,13,00,01,5.30
2011,05,13,00,02,5.30
2011,05,13,00,03,5.30
2011,05,13,00,04,5.30
2011,05,13,00,05,5.20
2011,05,13,00,06,5.20
2011,05,13,00,07,5.20
2011,05,13,00,08,5.10
2011,05,13,00,09,5.10
2011,05,13,00,10,5.10
2011,05,13,00,11,5.00
2011,05,13,00,12,5.00
2011,05,13,00,13,5.00
2011,05,13,00,14,4.90
2011,05,13,00,15,4.90
2011,05,13,00,16,4.90
2011,05,13,00,17,4.80
2011,05,13,00,18,4.80
2011,05,13,00,19,4.80
2011,05,13,00,20,4.80
2011,05,13,00,21,4.70
2011,05,13,00,22,4.70
2011,05,13,00,23,4.70
2011,05,13,00,24,4.70
2011,05,13,00,25,4.60
2011,05,13,00,26,4.60
2011,05,13,00,27,4.60
2011,05,13,00,28,4.60
2011,05,13,00,29,4.50
2011,05,13,00,30,4.50
2011,05,13,00,31,4.50
2011,05,13,00,32,4.50
2011,05,13,00,33,4.50
2011,05,13,00,34,4.50
2011,05,13,00,35,4.40
2011,05,13,00,36,4.50
2011,05,13,00,37,4.50
2011,05,13,00,38,4.40
2011,05,13,00,39,4.40
2011,05,13,00,40,4.40
2011,05,13,00,41,4.40
2011,05,13,00,42,4.40
2011,05,13,00,43,4.40
2011,05,13,00,44,4.30
2011,05,13,00,45,4.30
2011,05,13,00,46,4.30
2011,05,13,00,47,4.30
2011,05,13,00,48,4.30
2011,05,13,00,49,4.30
2011,05,13,00,50,4.40
2011,05,13,00,51,4.40
2011,05,13,00,52,4.40
2011,05,13,00,53,4.40
2011,05,13,00,54,4.40
2011,05,13,00,55,4.40
2011,05,13,00,56,4.40
2011,05,13,00,57,4.40
2011,05,13,00,58,4.50
2011,05,13,00,59,4.50
2011,05,13,01,00,4.50
2011,05,13,01,01,4.50
2011,05,13,01,02,4.60
2011,05,13,01,03,4.60
2011,05,13,01,04,4.60
2011,05,13,01,05,4.60
2011,05,13,01,06,4.60
2011,05,13,01,07,4.60
2011,05,13,01,08,4.50
2011,05,13,01,09,4.50
2011,05,13,01,10,4.50
2011,05,13,01,11,4.50
2011,05,13,01,12,4.50
2011,05,13,01,13,4.40
2011,05,13,01,14,4.40
2011,05,13,01,15,4.40
2011,05,13,01,16,4.40
2011,05,13,01,17,4.30
2011,05,13,01,18,4.30
2011,05,13,01,19,4.30
2011,05,13,01,20,4.30
2011,05,13,01,21,4.20
2011,05,13,01,22,4.20
2011,05,13,01,23,4.20
2011,05,13,01,24,4.10
2011,05,13,01,25,4.10
2011,05,13,01,26,4.10
2011,05,13,01,27,4.10
2011,05,13,01,28,4.10
2011,05,13,01,29,4.10
2011,05,13,01,30,4.10
2011,05,13,01,31,4.10
2011,05,13,01,32,4.10
2011,05,13,01,33,4.00
2011,05,13,01,34,4.00
2011,05,13,01,35,4.00
2011,05,13,01,36,3.90
2011,05,13,01,37,3.90
2011,05,13,01,38,3.90
2011,05,13,01,39,3.90
2011,05,13,01,40,3.90
2011,05,13,01,41,3.80
2011,05,13,01,42,3.80
2011,05,13,01,43,3.80
2011,05,13,01,44,3.80
2011,05,13,01,45,3.80
2011,05,13,01,46,3.80
2011,05,13,01,47,3.80
2011,05,13,01,48,3.70
2011,05,13,01,49,3.70
2011,05,13,01,50,3.70
2011,05,13,01,51,3.70
2011,05,13,01,52,3.70
2011,05,13,01,53,3.70
2011,05,13,01,54,3.70
2011,05,13,01,55,3.70
2011,05,13,01,56,3.70
2011,05,13,01,57,3.70
2011,05,13,01,58,3.80
2011,05,13,01,59,3.80
2011,05,13,02,00,3.80
2011,05,13,02,01,3.80
2011,05,13,02,02,3.80
2011,05,13,02,03,3.80
2011,05,13,02,04,3.90
2011,05,13,02,05,3.90
2011,05,13,02,06,3.90
2011,05,13,02,07,3.90
2011,05,13,02,08,3.90
2011,05,13,02,09,3.90
2011,05,13,02,10,3.90
2011,05,13,02,11,3.90
2011,05,13,02,12,3.90
2011,05,13,02,13,3.90
2011,05,13,02,14,3.90
2011,05,13,02,15,3.90
2011,05,13,02,16,3.90
2011,05,13,02,17,3.80
2011,05,13,02,18,3.80
2011,05,13,02,19,3.80
2011,05,13,02,20,3.80
2011,05,13,02,21,3.80
2011,05,13,02,22,3.80
2011,05,13,02,23,3.80
2011,05,13,02,24,3.80
2011,05,13,02,25,3.80
2011,05,13,02,26,3.80
2011,05,13,02,27,3.80
2011,05,13,02,28,3.80
2011,05,13,02,29,3.80
2011,05,13,02,30,3.80
2011,05,13,02,31,3.80
2011,05,13,02,32,3.80
2011,05,13,02,33,3.80
2011,05,13,02,34,3.80
2011,05,13,02,35,3.70
2011,05,13,02,36,3.70
2011,05,13,02,37,3.70
2011,05,13,02,38,3.70
2011,05,13,02,39,3.70
2011,05,13,02,40,3.70
2011,05,13,02,41,3.60
2011,05,13,02,42,3.60
2011,05,13,02,43,3.60
2011,05,13,02,44,3.60
2011,05,13,02,45,3.60
2011,05,13,02,46,3.60
2011,05,13,02,47,3.60
2011,05,13,02,48,3.60
2011,05,13,02,49,3.60
2011,05,13,02,50,3.60
2011,05,13,02,51,3.50
2011,05,13,02,52,3.50
2011,05,13,02,53,3.50
2011,05,13,02,54,3.50
2011,05,13,02,55,3.50
2011,05,13,02,56,3.40
2011,05,13,02,57,3.40
2011,05,13,02,58,3.40
2011,05,13,02,59,3.40
2011,05,13,03,00,3.40
2011,05,13,03,01,3.40
2011,05,13,03,02,3.40
2011,05,13,03,03,3.40
2011,05,13,03,04,3.40
2011,05,13,03,05,3.40
2011,05,13,03,06,3.40
2011,05,13,03,07,3.40
2011,05,13,03,08,3.40
2011,05,13,03,09,3.40
2011,05,13,03,10,3.40
2011,05,13,03,11,3.40
2011,05,13,03,12,3.40
2011,05,13,03,13,3.40
2011,05,13,03,14,3.40
2011,05,13,03,15,3.40
2011,05,13,03,16,3.40
2011,05,13,03,17,3.40
2011,05,13,03,18,3.40
2011,05,13,03,19,3.40
2011,05,13,03,20,3.40
2011,05,13,03,21,3.40
2011,05,13,03,22,3.40
2011,05,13,03,23,3.30
2011,05,13,03,24,3.30
2011,05,13,03,25,3.30
2011,05,13,03,26,3.30
2011,05,13,03,27,3.30
2011,05,13,03,28,3.30
2011,05,13,03,29,3.30
2011,05,13,03,30,3.30
2011,05,13,03,31,3.30
2011,05,13,03,32,3.30
2011,05,13,03,33,3.30
2011,05,13,03,34,3.30
2011,05,13,03,35,3.30
2011,05,13,03,36,3.30
2011,05,13,03,37,3.30
2011,05,13,03,38,3.40
2011,05,13,03,39,3.40
2011,05,13,03,40,3.40
2011,05,13,03,41,3.40
2011,05,13,03,42,3.40
2011,05,13,03,43,3.30
2011,05,13,03,44,3.30
2011,05,13,03,45,3.30
2011,05,13,03,46,3.30
2011,05,13,03,47,3.30
2011,05,13,03,48,3.30
2011,05,13,03,49,3.30
2011,05,13,03,50,3.30
2011,05,13,03,51,3.30
2011,05,13,03,52,3.30
2011,05,13,03,53,3.20
2011,05,13,03,54,3.20
2011,05,13,03,55,3.20
2011,05,13,03,56,3.20
2011,05,13,03,57,3.20
2011,05,13,03,58,3.20
2011,05,13,03,59,3.20
2011,05,13,04,00,3.10
2011,05,13,04,01,3.10
2011,05,13,04,02,3.10
2011,05,13,04,03,3.10
2011,05,13,04,04,3.10
2011,05,13,04,05,3.10
2011,05,13,04,06,3.10
2011,05,13,04,07,3.10
2011,05,13,04,08,3.10
2011,05,13,04,09,3.10
2011,05,13,04,10,3.10
2011,05,13,04,11,3.10
2011,05,13,04,12,3.10
2011,05,13,04,13,3.00
2011,05,13,04,14,3.00
2011,05,13,04,15,3.00
2011,05,13,04,16,3.00
2011,05,13,04,17,3.00
2011,05,13,04,18,3.00
2011,05,13,04,19,3.00
2011,05,13,04,20,3.00
2011,05,13,04,21,3.00
2011,05,13,04,22,3.00
2011,05,13,04,23,3.00
2011,05,13,04,24,3.00
2011,05,13,04,25,2.90
2011,05,13,04,26,2.90
2011,05,13,04,27,2.90
2011,05,13,04,28,2.90
2011,05,13,04,29,2.80
2011,05,13,04,30,2.80
2011,05,13,04,31,2.80
2011,05,13,04,32,2.80
2011,05,13,04,33,2.80
2011,05,13,04,34,2.80
2011,05,13,04,35,2.80
2011,05,13,04,36,2.80
2011,05,13,04,37,2.80
2011,05,13,04,38,2.80
2011,05,13,04,39,2.80
2011,05,13,04,40,2.80
2011,05,13,04,41,2.80
2011,05,13,04,42,2.80
2011,05,13,04,43,2.80
2011,05,13,04,44,2.80
2011,05,13,04,45,2.80
2011,05,13,04,46,2.80
2011,05,13,04,47,2.80
2011,05,13,04,48,2.80
2011,05,13,04,49,2.80
2011,05,13,04,50,2.80
2011,05,13,04,51,2.80
2011,05,13,04,52,2.80
2011,05,13,04,53,2.80
2011,05,13,04,54,2.80
2011,05,13,04,55,2.80
2011,05,13,04,56,2.80
2011,05,13,04,57,2.80
2011,05,13,04,58,2.80
2011,05,13,04,59,2.80
2011,05,13,05,00,2.70
2011,05,13,05,01,2.70
2011,05,13,05,02,2.70
2011,05,13,05,03,2.70
2011,05,13,05,04,2.70
2011,05,13,05,05,2.70
2011,05,13,05,06,2.70
2011,05,13,05,07,2.70
2011,05,13,05,08,2.70
2011,05,13,05,09,2.70
2011,05,13,05,10,2.70
2011,05,13,05,11,2.70
2011,05,13,05,12,2.70
2011,05,13,05,13,2.70
2011,05,13,05,14,2.60
2011,05,13,05,15,2.60
2011,05,13,05,16,2.60
2011,05,13,05,17,2.60
2011,05,13,05,18,2.60
2011,05,13,05,19,2.60
2011,05,13,05,20,2.60
2011,05,13,05,21,2.60
2011,05,13,05,22,2.60
2011,05,13,05,23,2.50
2011,05,13,05,24,2.50
2011,05,13,05,25,2.50
2011,05,13,05,26,2.50
2011,05,13,05,27,2.50
2011,05,13,05,28,2.50
2011,05,13,05,29,2.60
2011,05,13,05,30,2.60
2011,05,13,05,31,2.60
2011,05,13,05,32,2.60
2011,05,13,05,33,2.50
2011,05,13,05,34,2.50
2011,05,13,05,35,2.50
2011,05,13,05,36,2.50
2011,05,13,05,37,2.50
2011,05,13,05,38,2.50
2011,05,13,05,39,2.40
2011,05,13,05,40,2.40
2011,05,13,05,41,2.40
2011,05,13,05,42,2.40
2011,05,13,05,43,2.40
2011,05,13,05,44,2.40
2011,05,13,05,45,2.40
2011,05,13,05,46,2.40
2011,05,13,05,47,2.40
2011,05,13,05,48,2.40
2011,05,13,05,49,2.40
2011,05,13,05,50,2.40
2011,05,13,05,51,2.40
2011,05,13,05,52,2.50
2011,05,13,05,53,2.50
2011,05,13,05,54,2.50
2011,05,13,05,55,2.50
2011,05,13,05,56,2.50
2011,05,13,05,57,2.50
2011,05,13,05,58,2.50
2011,05,13,05,59,2.50
2011,05,13,06,00,2.50
2011,05,13,06,01,2.50
2011,05,13,06,02,2.50
2011,05,13,06,03,2.50
2011,05,13,06,04,2.50
2011,05,13,06,05,2.50
2011,05,13,06,06,2.50
2011,05,13,06,07,2.50
2011,05,13,06,08,2.60
2011,05,13,06,09,2.60
2011,05,13,06,10,2.60
2011,05,13,06,11,2.60
2011,05,13,06,12,2.60
2011,05,13,06,13,2.60
2011,05,13,06,14,2.60
2011,05,13,06,15,2.60
2011,05,13,06,16,2.60
2011,05,13,06,17,2.60
2011,05,13,06,18,2.70
2011,05,13,06,19,2.70
2011,05,13,06,20,2.70
2011,05,13,06,21,2.70
2011,05,13,06,22,2.70
2011,05,13,06,23,2.70
2011,05,13,06,24,2.70
2011,05,13,06,25,2.70
2011,05,13,06,26,2.70
2011,05,13,06,27,2.70
2011,05,13,06,28,2.70
2011,05,13,06,29,2.70
2011,05,13,06,30,2.80
2011,05,13,06,31,2.80
2011,05,13,06,32,2.80
2011,05,13,06,33,2.80
2011,05,13,06,34,2.80
2011,05,13,06,35,2.80
2011,05,13,06,36,2.80
2011,05,13,06,37,2.80
2011,05,13,06,38,2.80
2011,05,13,06,39,2.80
2011,05,13,06,40,2.80
2011,05,13,06,41,2.80
2011,05,13,06,42,2.80
2011,05,13,06,43,2.80
2011,05,13,06,44,2.80
2011,05,13,06,45,2.80
2011,05,13,06,46,2.80
2011,05,13,06,47,2.80
2011,05,13,06,48,2.90
2011,05,13,06,49,2.90
2011,05,13,06,50,2.90
2011,05,13,06,51,2.90
2011,05,13,06,52,2.90
2011,05,13,06,53,2.90
2011,05,13,06,54,2.90
2011,05,13,06,55,2.90
2011,05,13,06,56,2.90
2011,05,13,06,57,3.00
2011,05,13,06,58,3.00
2011,05,13,06,59,3.00
2011,05,13,07,00,3.00
2011,05,13,07,01,3.00
2011,05,13,07,02,3.00
2011,05,13,07,03,3.00
2011,05,13,07,04,3.00
2011,05,13,07,05,3.00
2011,05,13,07,06,3.10
2011,05,13,07,07,3.10
2011,05,13,07,08,3.10
2011,05,13,07,09,3.00
2011,05,13,07,10,3.00
2011,05,13,07,11,3.00
2011,05,13,07,12,3.00
2011,05,13,07,13,3.00
2011,05,13,07,14,3.00
2011,05,13,07,15,3.10
2011,05,13,07,16,3.10
2011,05,13,07,17,3.10
2011,05,13,07,18,3.10
2011,05,13,07,19,3.10
2011,05,13,07,20,3.20
2011,05,13,07,21,3.20
2011,05,13,07,22,3.20
2011,05,13,07,23,3.20
2011,05,13,07,24,3.20
2011,05,13,07,25,3.20
2011,05,13,07,26,3.20
2011,05,13,07,27,3.30
2011,05,13,07,28,3.30
2011,05,13,07,29,3.30
2011,05,13,07,30,3.40
2011,05,13,07,31,3.40
2011,05,13,07,32,3.40
2011,05,13,07,33,3.50
2011,05,13,07,34,3.50
2011,05,13,07,35,3.50
2011,05,13,07,36,3.50
2011,05,13,07,37,3.50
2011,05,13,07,38,3.60
2011,05,13,07,39,3.60
2011,05,13,07,40,3.60
2011,05,13,07,41,3.60
2011,05,13,07,42,3.70
2011,05,13,07,43,3.70
2011,05,13,07,44,3.70
2011,05,13,07,45,3.70
2011,05,13,07,46,3.70
2011,05,13,07,47,3.70
2011,05,13,07,48,3.70
2011,05,13,07,49,3.70
2011,05,13,07,50,3.70
2011,05,13,07,51,3.70
2011,05,13,07,52,3.70
2011,05,13,07,53,3.80
2011,05,13,07,54,3.80
2011,05,13,07,55,3.80
2011,05,13,07,56,3.90
2011,05,13,07,57,3.90
2011,05,13,07,58,4.00
2011,05,13,07,59,4.00
2011,05,13,08,00,4.10
2011,05,13,08,01,4.10
2011,05,13,08,02,4.20
2011,05,13,08,03,4.20
2011,05,13,08,04,4.20
2011,05,13,08,05,4.30
2011,05,13,08,06,4.30
2011,05,13,08,07,4.40
2011,05,13,08,08,4.40
2011,05,13,08,09,4.40
2011,05,13,08,10,4.50
2011,05,13,08,11,4.50
2011,05,13,08,12,4.50
2011,05,13,08,13,4.60
2011,05,13,08,14,4.70
2011,05,13,08,15,4.70
2011,05,13,08,16,4.70
2011,05,13,08,17,4.80
2011,05,13,08,18,4.80
2011,05,13,08,19,4.80
2011,05,13,08,20,4.80
2011,05,13,08,21,4.80
2011,05,13,08,22,4.80
2011,05,13,08,23,4.90
2011,05,13,08,24,4.90
2011,05,13,08,25,5.00
2011,05,13,08,26,5.00
2011,05,13,08,27,5.10
2011,05,13,08,28,5.20
2011,05,13,08,29,5.20
2011,05,13,08,30,5.30
2011,05,13,08,31,5.40
2011,05,13,08,32,5.50
2011,05,13,08,33,5.50
2011,05,13,08,34,5.60
2011,05,13,08,35,5.70
2011,05,13,08,36,5.80
2011,05,13,08,37,5.80
2011,05,13,08,38,5.90
2011,05,13,08,39,5.90
2011,05,13,08,40,6.00
2011,05,13,08,41,6.00
2011,05,13,08,42,6.10
2011,05,13,08,43,6.10
2011,05,13,08,44,6.10
2011,05,13,08,45,6.20
2011,05,13,08,46,6.20
2011,05,13,08,47,6.20
2011,05,13,08,48,6.30
2011,05,13,08,49,6.30
2011,05,13,08,50,6.30
2011,05,13,08,51,6.30
2011,05,13,08,52,6.40
2011,05,13,08,53,6.40
2011,05,13,08,54,6.40
2011,05,13,08,55,6.40
2011,05,13,08,56,6.50
2011,05,13,08,57,6.60
2011,05,13,08,58,6.60
2011,05,13,08,59,6.60
2011,05,13,09,00,6.70
2011,05,13,09,01,6.70
2011,05,13,09,02,6.70
2011,05,13,09,03,6.70
2011,05,13,09,04,6.80
2011,05,13,09,05,6.80
2011,05,13,09,06,6.90
2011,05,13,09,07,7.00
2011,05,13,09,08,7.00
2011,05,13,09,09,7.10
2011,05,13,09,10,7.10
2011,05,13,09,11,7.20
2011,05,13,09,12,7.20
2011,05,13,09,13,7.20
2011,05,13,09,14,7.30
2011,05,13,09,15,7.40
2011,05,13,09,16,7.40
2011,05,13,09,17,7.50
2011,05,13,09,18,7.50
2011,05,13,09,19,7.60
2011,05,13,09,20,7.60
2011,05,13,09,21,7.70
2011,05,13,09,22,7.70
2011,05,13,09,23,7.80
2011,05,13,09,24,7.80
2011,05,13,09,25,7.80
2011,05,13,09,26,7.90
2011,05,13,09,27,7.90
2011,05,13,09,28,8.00
2011,05,13,09,29,8.10
2011,05,13,09,30,8.10
2011,05,13,09,31,8.20
2011,05,13,09,32,8.20
2011,05,13,09,33,8.20
2011,05,13,09,34,8.30
2011,05,13,09,35,8.30
2011,05,13,09,36,8.30
2011,05,13,09,37,8.40
2011,05,13,09,38,8.40
2011,05,13,09,39,8.40
2011,05,13,09,40,8.50
2011,05,13,09,41,8.50
2011,05,13,09,42,8.60
2011,05,13,09,43,8.70
2011,05,13,09,44,8.70
2011,05,13,09,45,8.70
2011,05,13,09,46,8.80
2011,05,13,09,47,8.80
2011,05,13,09,48,8.80
2011,05,13,09,49,8.80
2011,05,13,09,50,8.80
2011,05,13,09,51,8.90
2011,05,13,09,52,8.90
2011,05,13,09,53,8.90
2011,05,13,09,54,8.90
2011,05,13,09,55,9.00
2011,05,13,09,56,9.00
2011,05,13,09,57,9.10
2011,05,13,09,58,9.10
2011,05,13,09,59,9.10
2011,05,13,10,00,9.20
2011,05,13,10,01,9.20
2011,05,13,10,02,9.30
2011,05,13,10,03,9.30
2011,05,13,10,04,9.30
2011,05,13,10,05,9.30
2011,05,13,10,06,9.30
2011,05,13,10,07,9.40
2011,05,13,10,08,9.40
2011,05,13,10,09,9.50
2011,05,13,10,10,9.60
2011,05,13,10,11,9.70
2011,05,13,10,12,9.70
2011,05,13,10,13,9.80
2011,05,13,10,14,9.80
2011,05,13,10,15,9.90
2011,05,13,10,16,9.90
2011,05,13,10,17,10.00
2011,05,13,10,18,10.10
2011,05,13,10,19,10.20
2011,05,13,10,20,10.20
2011,05,13,10,21,10.30
2011,05,13,10,22,10.40
2011,05,13,10,23,10.50
2011,05,13,10,24,10.60
2011,05,13,10,25,10.60
2011,05,13,10,26,10.70
2011,05,13,10,27,10.80
2011,05,13,10,28,10.80
2011,05,13,10,29,10.90
2011,05,13,10,30,11.00
2011,05,13,10,31,11.10
2011,05,13,10,32,11.10
2011,05,13,10,33,11.20
2011,05,13,10,34,11.30
2011,05,13,10,35,11.30
2011,05,13,10,36,11.30
2011,05,13,10,37,11.30
2011,05,13,10,38,11.30
2011,05,13,10,39,11.30
2011,05,13,10,40,11.30
2011,05,13,10,41,11.30
2011,05,13,10,42,11.30
2011,05,13,10,43,11.20
2011,05,13,10,44,11.20
2011,05,13,10,45,11.10
2011,05,13,10,46,11.10
2011,05,13,10,47,11.10
2011,05,13,10,48,11.10
2011,05,13,10,49,11.20
2011,05,13,10,50,11.20
2011,05,13,10,51,11.20
2011,05,13,10,52,11.20
2011,05,13,10,53,11.30
2011,05,13,10,54,11.30
2011,05,13,10,55,11.40
2011,05,13,10,56,11.50
2011,05,13,10,57,11.60
2011,05,13,10,58,11.70
2011,05,13,10,59,11.80
2011,05,13,11,00,11.80
2011,05,13,11,01,11.90
2011,05,13,11,02,11.90
2011,05,13,11,03,12.00
2011,05,13,11,04,12.10
2011,05,13,11,05,12.20
2011,05,13,11,06,12.20
2011,05,13,11,07,12.20
2011,05,13,11,08,12.20
2011,05,13,11,09,12.20
2011,05,13,11,10,12.20
2011,05,13,11,11,12.30
2011,05,13,11,12,12.30
2011,05,13,11,13,12.30
2011,05,13,11,14,12.30
2011,05,13,11,15,12.30
2011,05,13,11,16,12.30
2011,05,13,11,17,12.40
2011,05,13,11,18,12.40
2011,05,13,11,19,12.50
2011,05,13,11,20,12.50
2011,05,13,11,21,12.60
2011,05,13,11,22,12.60
2011,05,13,11,23,12.70
2011,05,13,11,24,12.70
2011,05,13,11,25,12.80
2011,05,13,11,26,12.80
2011,05,13,11,27,12.80
2011,05,13,11,28,12.80
2011,05,13,11,29,12.80
2011,05,13,11,30,12.70
2011,05,13,11,31,12.70
2011,05,13,11,32,12.60
2011,05,13,11,33,12.50
2011,05,13,11,34,12.40
2011,05,13,11,35,12.30
2011,05,13,11,36,12.30
2011,05,13,11,37,12.30
2011,05,13,11,38,12.30
2011,05,13,11,39,12.40
2011,05,13,11,40,12.40
2011,05,13,11,41,12.50
2011,05,13,11,42,12.50
2011,05,13,11,43,12.50
2011,05,13,11,44,12.60
2011,05,13,11,45,12.60
2011,05,13,11,46,12.70
2011,05,13,11,47,12.70
2011,05,13,11,48,12.70
2011,05,13,11,49,12.80
2011,05,13,11,50,12.80
2011,05,13,11,51,12.80
2011,05,13,11,52,12.90
2011,05,13,11,53,13.00
2011,05,13,11,54,13.10
2011,05,13,11,55,13.20
2011,05,13,11,56,13.30
2011,05,13,11,57,13.30
2011,05,13,11,58,13.40
2011,05,13,11,59,13.30
2011,05,13,12,00,13.20
2011,05,13,12,01,13.00
2011,05,13,12,02,12.80
2011,05,13,12,03,12.80
2011,05,13,12,04,12.70
2011,05,13,12,05,12.60
2011,05,13,12,06,12.60
2011,05,13,12,07,12.60
2011,05,13,12,08,12.60
2011,05,13,12,09,12.70
2011,05,13,12,10,12.70
2011,05,13,12,11,12.80
2011,05,13,12,12,12.90
2011,05,13,12,13,13.00
2011,05,13,12,14,13.00
2011,05,13,12,15,13.10
2011,05,13,12,16,13.20
2011,05,13,12,17,13.20
2011,05,13,12,18,13.30
2011,05,13,12,19,13.30
2011,05,13,12,20,13.40
2011,05,13,12,21,13.40
2011,05,13,12,22,13.50
2011,05,13,12,23,13.60
2011,05,13,12,24,13.60
2011,05,13,12,25,13.70
2011,05,13,12,26,13.80
2011,05,13,12,27,13.80
2011,05,13,12,28,13.80
2011,05,13,12,29,13.80
2011,05,13,12,30,13.80
2011,05,13,12,31,13.80
2011,05,13,12,32,13.70
2011,05,13,12,33,13.70
2011,05,13,12,34,13.70
2011,05,13,12,35,13.80
2011,05,13,12,36,13.80
2011,05,13,12,37,13.90
2011,05,13,12,38,14.00
2011,05,13,12,39,14.10
2011,05,13,12,40,14.20
2011,05,13,12,41,14.20
2011,05,13,12,42,14.30
2011,05,13,12,43,14.20
2011,05,13,12,44,14.10
2011,05,13,12,45,14.10
2011,05,13,12,46,14.10
2011,05,13,12,47,14.10
2011,05,13,12,48,14.10
2011,05,13,12,49,14.10
2011,05,13,12,50,14.20
2011,05,13,12,51,14.10
2011,05,13,12,52,14.10
2011,05,13,12,53,14.00
2011,05,13,12,54,13.90
2011,05,13,12,55,13.90
2011,05,13,12,56,13.90
2011,05,13,12,57,13.80
2011,05,13,12,58,13.80
2011,05,13,12,59,13.80
2011,05,13,13,00,13.90
2011,05,13,13,01,14.00
2011,05,13,13,02,14.00
2011,05,13,13,03,14.10
2011,05,13,13,04,14.20
2011,05,13,13,05,14.30
2011,05,13,13,06,14.40
2011,05,13,13,07,14.60
2011,05,13,13,08,14.70
2011,05,13,13,09,14.70
2011,05,13,13,10,14.70
2011,05,13,13,11,14.70
2011,05,13,13,12,14.60
2011,05,13,13,13,14.60
2011,05,13,13,14,14.60
2011,05,13,13,15,14.60
2011,05,13,13,16,14.70
2011,05,13,13,17,14.80
2011,05,13,13,18,14.80
2011,05,13,13,19,14.90
2011,05,13,13,20,15.00
2011,05,13,13,21,15.00
2011,05,13,13,22,15.00
2011,05,13,13,23,15.10
2011,05,13,13,24,15.20
2011,05,13,13,25,15.30
2011,05,13,13,26,15.40
2011,05,13,13,27,15.60
2011,05,13,13,28,15.70
2011,05,13,13,29,15.70
2011,05,13,13,30,15.80
2011,05,13,13,31,15.90
2011,05,13,13,32,16.00
2011,05,13,13,33,16.10
2011,05,13,13,34,16.10
2011,05,13,13,35,16.10
2011,05,13,13,36,16.00
2011,05,13,13,37,15.90
2011,05,13,13,38,15.80
2011,05,13,13,39,15.80
2011,05,13,13,40,15.80
2011,05,13,13,41,15.70
2011,05,13,13,42,15.70
2011,05,13,13,43,15.70
2011,05,13,13,44,15.80
2011,05,13,13,45,15.70
2011,05,13,13,46,15.60
2011,05,13,13,47,15.50
2011,05,13,13,48,15.40
2011,05,13,13,49,15.40
2011,05,13,13,50,15.40
2011,05,13,13,51,15.40
2011,05,13,13,52,15.40
2011,05,13,13,53,15.30
2011,05,13,13,54,15.20
2011,05,13,13,55,15.20
2011,05,13,13,56,15.20
2011,05,13,13,57,15.20
2011,05,13,13,58,15.30
2011,05,13,13,59,15.40
2011,05,13,14,00,15.50
2011,05,13,14,01,15.70
2011,05,13,14,02,15.80
2011,05,13,14,03,15.90
2011,05,13,14,04,16.00
2011,05,13,14,05,16.10
2011,05,13,14,06,16.20
2011,05,13,14,07,16.30
2011,05,13,14,08,16.30
2011,05,13,14,09,16.30
2011,05,13,14,10,16.40
2011,05,13,14,11,16.50
2011,05,13,14,12,16.50
2011,05,13,14,13,16.40
2011,05,13,14,14,16.20
2011,05,13,14,15,16.10
2011,05,13,14,16,16.00
2011,05,13,14,17,16.00
2011,05,13,14,18,15.80
2011,05,13,14,19,15.70
2011,05,13,14,20,15.60
2011,05,13,14,21,15.50
2011,05,13,14,22,15.50
2011,05,13,14,23,15.60
2011,05,13,14,24,15.60
2011,05,13,14,25,15.70
2011,05,13,14,26,15.80
2011,05,13,14,27,15.80
2011,05,13,14,28,15.80
2011,05,13,14,29,15.90
2011,05,13,14,30,15.90
2011,05,13,14,31,15.90
2011,05,13,14,32,16.00
2011,05,13,14,33,16.10
2011,05,13,14,34,16.20
2011,05,13,14,35,16.20
2011,05,13,14,36,16.30
2011,05,13,14,37,16.40
2011,05,13,14,38,16.50
2011,05,13,14,39,16.50
2011,05,13,14,40,16.60
2011,05,13,14,41,16.70
2011,05,13,14,42,16.70
2011,05,13,14,43,16.70
2011,05,13,14,44,16.70
2011,05,13,14,45,16.70
2011,05,13,14,46,16.80
2011,05,13,14,47,16.70
2011,05,13,14,48,16.80
2011,05,13,14,49,16.70
2011,05,13,14,50,16.50
2011,05,13,14,51,16.50
2011,05,13,14,52,16.40
2011,05,13,14,53,16.40
2011,05,13,14,54,16.50
2011,05,13,14,55,16.40
2011,05,13,14,56,16.40
2011,05,13,14,57,16.30
2011,05,13,14,58,16.20
2011,05,13,14,59,16.20
2011,05,13,15,00,16.20
2011,05,13,15,01,16.30
2011,05,13,15,02,16.20
2011,05,13,15,03,16.10
2011,05,13,15,04,16.00
2011,05,13,15,05,15.80
2011,05,13,15,06,15.70
2011,05,13,15,07,15.50
2011,05,13,15,08,15.40
2011,05,13,15,09,15.40
2011,05,13,15,10,15.30
2011,05,13,15,11,15.20
2011,05,13,15,12,15.30
2011,05,13,15,13,15.30
2011,05,13,15,14,15.30
2011,05,13,15,15,15.30
2011,05,13,15,16,15.40
2011,05,13,15,17,15.30
2011,05,13,15,18,15.40
2011,05,13,15,19,15.40
2011,05,13,15,20,15.40
2011,05,13,15,21,15.30
2011,05,13,15,22,15.30
2011,05,13,15,23,15.30
2011,05,13,15,24,15.40
2011,05,13,15,25,15.50
2011,05,13,15,26,15.60
2011,05,13,15,27,15.70
2011,05,13,15,28,15.80
2011,05,13,15,29,15.90
2011,05,13,15,30,16.00
2011,05,13,15,31,16.10
2011,05,13,15,32,16.10
2011,05,13,15,33,16.10
2011,05,13,15,34,16.20
2011,05,13,15,35,16.30
2011,05,13,15,36,16.30
2011,05,13,15,37,16.30
2011,05,13,15,38,16.30
2011,05,13,15,39,16.40
2011,05,13,15,40,16.40
2011,05,13,15,41,16.50
2011,05,13,15,42,16.60
2011,05,13,15,43,16.70
2011,05,13,15,44,16.70
2011,05,13,15,45,16.60
2011,05,13,15,46,16.60
2011,05,13,15,47,16.50
2011,05,13,15,48,16.60
2011,05,13,15,49,16.60
2011,05,13,15,50,16.40
2011,05,13,15,51,16.30
2011,05,13,15,52,16.30
2011,05,13,15,53,16.30
2011,05,13,15,54,16.30
2011,05,13,15,55,16.40
2011,05,13,15,56,16.40
2011,05,13,15,57,16.50
2011,05,13,15,58,16.60
2011,05,13,15,59,16.70
2011,05,13,16,00,16.80
2011,05,13,16,01,16.90
2011,05,13,16,02,17.00
2011,05,13,16,03,17.20
2011,05,13,16,04,17.40
2011,05,13,16,05,17.50
2011,05,13,16,06,17.60
2011,05,13,16,07,17.60
2011,05,13,16,08,17.50
2011,05,13,16,09,17.30
2011,05,13,16,10,17.10
2011,05,13,16,11,16.90
2011,05,13,16,12,16.80
2011,05,13,16,13,16.70
2011,05,13,16,14,16.60
2011,05,13,16,15,16.60
2011,05,13,16,16,16.50
2011,05,13,16,17,16.50
2011,05,13,16,18,16.60
2011,05,13,16,19,16.60
2011,05,13,16,20,16.60
2011,05,13,16,21,16.60
2011,05,13,16,22,16.60
2011,05,13,16,23,16.60
2011,05,13,16,24,16.60
2011,05,13,16,25,16.60
2011,05,13,16,26,16.70
2011,05,13,16,27,16.70
2011,05,13,16,28,16.80
2011,05,13,16,29,16.80
2011,05,13,16,30,16.80
2011,05,13,16,31,16.80
2011,05,13,16,32,16.90
2011,05,13,16,33,16.90
2011,05,13,16,34,17.00
2011,05,13,16,35,17.00
2011,05,13,16,36,17.00
2011,05,13,16,37,17.00
2011,05,13,16,38,17.00
2011,05,13,16,39,17.00
2011,05,13,16,40,17.10
2011,05,13,16,41,17.20
2011,05,13,16,42,17.30
2011,05,13,16,43,17.40
2011,05,13,16,44,17.40
2011,05,13,16,45,17.40
2011,05,13,16,46,17.50
2011,05,13,16,47,17.50
2011,05,13,16,48,17.60
2011,05,13,16,49,17.60
2011,05,13,16,50,17.70
2011,05,13,16,51,17.70
2011,05,13,16,52,17.70
2011,05,13,16,53,17.70
2011,05,13,16,54,17.60
2011,05,13,16,55,17.60
2011,05,13,16,56,17.40
2011,05,13,16,57,17.40
2011,05,13,16,58,17.30
2011,05,13,16,59,17.30
2011,05,13,17,00,17.30
2011,05,13,17,01,17.30
2011,05,13,17,02,17.30
2011,05,13,17,03,17.30
2011,05,13,17,04,17.40
2011,05,13,17,05,17.40
2011,05,13,17,06,17.40
2011,05,13,17,07,17.40
2011,05,13,17,08,17.40
2011,05,13,17,09,17.50
2011,05,13,17,10,17.50
2011,05,13,17,11,17.50
2011,05,13,17,12,17.60
2011,05,13,17,13,17.60
2011,05,13,17,14,17.60
2011,05,13,17,15,17.70
2011,05,13,17,16,17.60
2011,05,13,17,17,17.60
2011,05,13,17,18,17.60
2011,05,13,17,19,17.60
2011,05,13,17,20,17.70
2011,05,13,17,21,17.70
2011,05,13,17,22,17.70
2011,05,13,17,23,17.70
2011,05,13,17,24,17.70
2011,05,13,17,25,17.70
2011,05,13,17,26,17.60
2011,05,13,17,27,17.60
2011,05,13,17,28,17.50
2011,05,13,17,29,17.40
2011,05,13,17,30,17.40
2011,05,13,17,31,17.40
2011,05,13,17,32,17.40
2011,05,13,17,33,17.30
2011,05,13,17,34,17.30
2011,05,13,17,35,17.30
2011,05,13,17,36,17.30
2011,05,13,17,37,17.20
2011,05,13,17,38,17.20
2011,05,13,17,39,17.20
2011,05,13,17,40,17.20
2011,05,13,17,41,17.20
2011,05,13,17,42,17.30
2011,05,13,17,43,17.30
2011,05,13,17,44,17.30
2011,05,13,17,45,17.40
2011,05,13,17,46,17.40